When you browse on this site, cookies collect data to enhance your experience and personalize the content and advertising you see.
Visit our Privacy Policy to learn more. By continuing to use the site, you agree to this use of cookies and data.
  • Em Portugal
  • Lista de países
  • Para 7 dias
  • Temperatura da água
  • Mapas de satélite
  • Mapa do tempo
  • Widgets de tempo
  • user-avatar
    Iniciar Sessão

    Previsão horária em Bihać

    Hoje, 19 Janeiro, Sábado

    Tempo Temperatura Precipitação Vento Pressão Humidade
    00:00 -3°C° 0.2 mm 4 m/s 709 mmHg 88%
    01:00 -2°C° 0 mm 3 m/s 708 mmHg 84%
    02:00 -2°C° 0 mm 3 m/s 708 mmHg 84%
    03:00 -2°C° 0 mm 3 m/s 708 mmHg 85%
    04:00 -2°C° 0 mm 3 m/s 708 mmHg 85%
    05:00 -2°C° 0 mm 3 m/s 708 mmHg 86%
    06:00 -2°C° 0 mm 3 m/s 708 mmHg 86%
    07:00 -3°C° 0 mm 4 m/s 708 mmHg 87%
    08:00 -2°C° 0 mm 4 m/s 708 mmHg 85%
    09:00 -1°C° 0 mm 3 m/s 708 mmHg 83%
    10:00 0°C° 0 mm 3 m/s 708 mmHg 82%
    11:00 0°C° 0.3 mm 3 m/s 708 mmHg 83%
    12:00 0°C° 0.3 mm 3 m/s 708 mmHg 84%
    13:00 +3°C° 0 mm 2 m/s 708 mmHg 77%
    14:00 +2°C° 0.1 mm 2 m/s 708 mmHg 79%
    15:00 +2°C° 0.1 mm 2 m/s 708 mmHg 81%
    16:00 0°C° 0.1 mm 3 m/s 707 mmHg 83%
    17:00 0°C° 0.1 mm 3 m/s 707 mmHg 84%
    18:00 -1°C° 0.1 mm 3 m/s 707 mmHg 85%
    19:00 -1°C° 0.1 mm 2 m/s 707 mmHg 86%
    20:00 -1°C° 0.2 mm 2 m/s 707 mmHg 86%
    21:00 -1°C° 0.2 mm 2 m/s 707 mmHg 87%
    22:00 -2°C° 0.2 mm 2 m/s 707 mmHg 87%
    23:00 -2°C° 0.1 mm 2 m/s 707 mmHg 88%

    Amanhã, 20 Janeiro, Domingo

    Tempo Temperatura Precipitação Vento Pressão Humidade
    00:00 -2°C° 0.1 mm 2 m/s 707 mmHg 89%
    01:00 -3°C° 0.1 mm 2 m/s 706 mmHg 90%
    02:00 -3°C° 0 mm 2 m/s 706 mmHg 90%
    03:00 -3°C° 0 mm 2 m/s 706 mmHg 90%
    04:00 -3°C° 0 mm 2 m/s 706 mmHg 90%
    05:00 -3°C° 0 mm 2 m/s 706 mmHg 90%
    06:00 -1°C° 0 mm 1 m/s 706 mmHg 90%
    07:00 -1°C° 0 mm 1 m/s 706 mmHg 90%
    08:00 0°C° 0 mm 1 m/s 707 mmHg 85%
    09:00 +1°C° 0 mm 1 m/s 707 mmHg 80%
    10:00 +3°C° 0 mm 1 m/s 707 mmHg 76%
    11:00 +4°C° 0 mm 1 m/s 708 mmHg 72%
    12:00 +4°C° 0 mm 0 m/s 708 mmHg 68%
    13:00 +5°C° 0 mm 0 m/s 708 mmHg 64%
    14:00 +4°C° 0 mm 0 m/s 708 mmHg 68%
    15:00 +4°C° 0 mm 0 m/s 707 mmHg 72%
    16:00 +4°C° 0 mm 1 m/s 707 mmHg 75%
    17:00 +3°C° 0 mm 1 m/s 707 mmHg 79%
    18:00 +2°C° 0 mm 1 m/s 707 mmHg 83%
    19:00 +1°C° 0 mm 1 m/s 707 mmHg 87%
    20:00 +1°C° 0 mm 1 m/s 708 mmHg 88%
    21:00 +1°C° 0 mm 1 m/s 708 mmHg 90%
    22:00 -1°C° 0 mm 2 m/s 708 mmHg 91%
    23:00 -1°C° 0 mm 2 m/s 708 mmHg 91%

    Depois de amanhã, 21 Janeiro, Segunda-feira

    Tempo Temperatura Precipitação Vento Pressão Humidade
    00:00 -1°C° 0 mm 2 m/s 708 mmHg 91%
    01:00 -1°C° 0 mm 2 m/s 709 mmHg 91%
    02:00 -1°C° 0 mm 2 m/s 709 mmHg 90%
    03:00 -2°C° 0 mm 2 m/s 709 mmHg 89%
    04:00 -2°C° 0 mm 2 m/s 708 mmHg 88%
    05:00 -2°C° 0 mm 3 m/s 709 mmHg 87%
    06:00 -2°C° 0 mm 3 m/s 709 mmHg 86%
    07:00 -2°C° 0 mm 3 m/s 709 mmHg 85%
    08:00 -2°C° 0.1 mm 3 m/s 709 mmHg 84%
    09:00 -1°C° 0.1 mm 3 m/s 709 mmHg 82%
    10:00 -1°C° 0.1 mm 3 m/s 710 mmHg 81%
    11:00 -1°C° 0.3 mm 3 m/s 710 mmHg 81%
    12:00 -1°C° 0.3 mm 3 m/s 709 mmHg 82%
    13:00 -1°C° 0.3 mm 3 m/s 709 mmHg 83%
    14:00 -1°C° 0.3 mm 3 m/s 709 mmHg 83%
    15:00 -2°C° 0.3 mm 3 m/s 709 mmHg 83%
    16:00 -2°C° 0.3 mm 3 m/s 709 mmHg 83%
    17:00 -2°C° 0.1 mm 3 m/s 709 mmHg 84%
    18:00 -2°C° 0.1 mm 3 m/s 709 mmHg 85%
    19:00 -4°C° 0.1 mm 3 m/s 709 mmHg 86%
    20:00 -4°C° 0.1 mm 3 m/s 708 mmHg 86%
    21:00 -4°C° 0.1 mm 3 m/s 708 mmHg 86%
    22:00 -4°C° 0.1 mm 3 m/s 708 mmHg 86%
    23:00 -4°C° 0.3 mm 3 m/s 708 mmHg 87%

    22 Janeiro, Terça-feira

    Tempo Temperatura Precipitação Vento Pressão Humidade
    00:00 -4°C° 0.3 mm 3 m/s 708 mmHg 88%
    01:00 -4°C° 0.3 mm 3 m/s 708 mmHg 89%
    02:00 -4°C° 0.7 mm 3 m/s 707 mmHg 89%
    03:00 -4°C° 0.7 mm 3 m/s 707 mmHg 90%
    04:00 -5°C° 0.7 mm 3 m/s 706 mmHg 90%
    05:00 -5°C° 0.2 mm 3 m/s 706 mmHg 89%
    06:00 -5°C° 0.2 mm 3 m/s 705 mmHg 89%
    07:00 -5°C° 0.2 mm 3 m/s 705 mmHg 88%
    08:00 -4°C° 0 mm 3 m/s 705 mmHg 87%
    09:00 -4°C° 0 mm 3 m/s 704 mmHg 86%
    10:00 -2°C° 0 mm 3 m/s 704 mmHg 85%
    11:00 -2°C° 0.1 mm 3 m/s 704 mmHg 85%
    12:00 -1°C° 0.1 mm 3 m/s 703 mmHg 85%
    13:00 -1°C° 0.1 mm 3 m/s 702 mmHg 85%
    14:00 -1°C° 0.6 mm 3 m/s 702 mmHg 87%
    15:00 -1°C° 0.6 mm 3 m/s 701 mmHg 88%
    16:00 -2°C° 0.6 mm 3 m/s 700 mmHg 90%
    17:00 -2°C° 1.4 mm 3 m/s 700 mmHg 91%
    18:00 -2°C° 1.4 mm 3 m/s 699 mmHg 92%
    19:00 -4°C° 1.4 mm 3 m/s 699 mmHg 93%
    20:00 -4°C° 1.8 mm 3 m/s 698 mmHg 93%
    21:00 -4°C° 1.8 mm 3 m/s 698 mmHg 94%
    22:00 -4°C° 1.8 mm 3 m/s 698 mmHg 94%
    23:00 -4°C° 1 mm 3 m/s 697 mmHg 93%

    23 Janeiro, Quarta-feira

    Tempo Temperatura Precipitação Vento Pressão Humidade
    00:00 -4°C° 1 mm 3 m/s 696 mmHg 92%
    01:00 -5°C° 1 mm 3 m/s 696 mmHg 91%
    02:00 -5°C° 0.4 mm 3 m/s 695 mmHg 91%
    03:00 -5°C° 0.4 mm 3 m/s 695 mmHg 92%
    04:00 -5°C° 0.4 mm 3 m/s 694 mmHg 92%
    05:00 -5°C° 0.8 mm 3 m/s 694 mmHg 92%
    06:00 -5°C° 0.8 mm 3 m/s 694 mmHg 93%
    07:00 -4°C° 0.8 mm 2 m/s 694 mmHg 94%
    08:00 -3°C° 0.6 mm 2 m/s 694 mmHg 93%
    09:00 -3°C° 0.6 mm 2 m/s 694 mmHg 92%
    10:00 -3°C° 0.6 mm 2 m/s 694 mmHg 92%
    11:00 -2°C° 0.2 mm 2 m/s 694 mmHg 91%
    12:00 -2°C° 0.2 mm 2 m/s 694 mmHg 91%
    13:00 -1°C° 0.2 mm 2 m/s 695 mmHg 91%
    14:00 -1°C° 0.1 mm 2 m/s 695 mmHg 91%
    15:00 -1°C° 0.1 mm 2 m/s 695 mmHg 91%
    16:00 -1°C° 0.1 mm 2 m/s 695 mmHg 91%
    17:00 -2°C° 0 mm 2 m/s 695 mmHg 91%
    18:00 -2°C° 0 mm 2 m/s 696 mmHg 92%
    19:00 -3°C° 0 mm 2 m/s 696 mmHg 92%
    20:00 -3°C° 0 mm 2 m/s 696 mmHg 92%
    21:00 -4°C° 0 mm 2 m/s 696 mmHg 92%
    22:00 -4°C° 0 mm 2 m/s 696 mmHg 92%
    23:00 -4°C° 0 mm 2 m/s 696 mmHg 92%

    24 Janeiro, Quinta-feira

    Tempo Temperatura Precipitação Vento Pressão Humidade
    00:00 -3°C° 0 mm 2 m/s 696 mmHg 92%
    01:00 -3°C° 0 mm 2 m/s 697 mmHg 92%
    02:00 -2°C° 0 mm 2 m/s 696 mmHg 92%
    03:00 -2°C° 0 mm 2 m/s 696 mmHg 92%
    04:00 -2°C° 0 mm 2 m/s 696 mmHg 92%
    05:00 -2°C° 0 mm 2 m/s 696 mmHg 92%
    06:00 -2°C° 0 mm 3 m/s 696 mmHg 92%
    07:00 -2°C° 0 mm 3 m/s 696 mmHg 92%
    08:00 -1°C° 0 mm 3 m/s 696 mmHg 90%
    09:00 -1°C° 0 mm 3 m/s 697 mmHg 89%
    10:00 -1°C° 0 mm 4 m/s 697 mmHg 88%
    11:00 -1°C° 0 mm 4 m/s 696 mmHg 88%
    12:00 0°C° 0 mm 4 m/s 696 mmHg 88%
    13:00 0°C° 0 mm 5 m/s 696 mmHg 89%
    14:00 0°C° 0 mm 5 m/s 696 mmHg 88%
    15:00 -1°C° 0 mm 5 m/s 695 mmHg 87%
    16:00 -1°C° 0 mm 5 m/s 695 mmHg 86%
    17:00 -1°C° 0 mm 5 m/s 696 mmHg 86%
    18:00 -1°C° 0 mm 5 m/s 696 mmHg 86%
    19:00 -2°C° 0 mm 5 m/s 696 mmHg 87%
    20:00 -2°C° 0 mm 5 m/s 696 mmHg 86%
    21:00 -3°C° 0 mm 6 m/s 697 mmHg 86%
    22:00 -2°C° 0 mm 6 m/s 697 mmHg 86%
    23:00 -2°C° 0.1 mm 6 m/s 697 mmHg 86%
    Mostrar mais